Location: Caltech
(34.1382°N, 118.1253°W)
Time: 16:17:24
(UTC-07:00)

Iridium 12 - Visible Passes

Search period start: 25 April 2015 00:00
Search period end: 05 May 2015 00:00
Orbit: 776 x 779 km, 86.4° (Epoch: 25 April)

Date Brightness Start Highest point End Pass type
(mag) Time Alt. Az. Time Alt. Az. Time Alt. Az.
26 Apr 8.5 20:42:35 10° NW 20:45:42 15° W 20:48:33 10° WSW visible
27 Apr 7.7 20:07:50 10° NNW 20:12:22 30° W 20:16:48 10° SW visible
30 Apr 8.4 20:08:32 10° NW 20:12:22 20° W 20:16:00 10° SW visible
03 May 8.8 20:09:44 10° NW 20:12:19 13° W 20:14:37 10° WSW visible
